{"data":{"norad_id":45164,"epoch":"2026-05-25T03:03:08.732160Z","epoch_age_seconds":63954,"freshness":"FRESH","line1":"1 45164U 20008AK  26145.12718440 -.00000581  00000+0 -17012-2 0  9993","line2":"2 45164  87.8861  40.8628 0002114  87.0563 273.0806 13.10374718304867","mean_motion":13.10374718,"eccentricity":0.0002114,"inclination_deg":87.8861,"raan_deg":40.8628,"arg_perigee_deg":87.0563,"mean_anomaly_deg":273.0806,"bstar":-0.0017012,"rev_number":30486,"period_min":109.89223007888,"perigee_km":1220.1031929374,"apogee_km":1223.3164081646,"semimajor_km":7599.846800551,"source":"CELESTRAK","updated_at":"2026-05-25T13:38:22.340384Z"}}